• Join FlightAware (Why Join?)
  • Login
  • US Flag GB Flag 
04:11 EST


 

Airport Tracker/Info


-or-


 

Live Flight TrackerFlight Track Log ✈ ASQ5750 ✈ 05-May-2013 ✈ CYUL - KORD

Flight Track Log - Related Links

Times and Time Zones

All times are in EDT time to prevent confusion due to time zone crossing. See the ASQ5750 flight status page for this flight to view local times or setup timezone preferences in your user account.

Time Position Orientation Groundspeed Altitude Reporting Facility
EDT Latitude Longitude Course Direction KTS MPH feet Rate Location/Type
15:27 45.4333 -74.0667 270° West 280 322 10,100  Level Toronto Center
15:28 45.4500 -74.1667 283° West 290 334 11,700 1,320 Climbing Toronto Center
15:29 45.4816 -74.6625 259° West  Level FlightAware Approximate
15:29 45.4667 -74.3000 280° West 340 391 12,800  Level Toronto Center
15:30 45.4614 -74.8040 259° West  Level FlightAware Approximate
15:30 45.5000 -74.4500 288° West 360 414 14,200  Level Toronto Center
15:31 45.4351 -74.9431 250° West  Level FlightAware Approximate
15:31 45.4667 -74.6167 254° West 380 437 15,800  Level Toronto Center
15:32 45.4167 -75.0836 270° West  Level FlightAware Approximate
15:32 45.4667 -74.7500 270° West 380 437 17,300  Level Toronto Center
15:33 45.4167 -75.2279 270° West  Level FlightAware Approximate
15:33 45.4333 -74.9000 252° West 380 437 18,700  Level Toronto Center
15:34 45.4167 -75.0500 261° West 380 437 20,100 1,200 Climbing Toronto Center
15:35 45.4167 -75.1833 270° West 380 437 21,200 1,020 Climbing Toronto Center
15:36 45.4167 -75.3500 270° West 390 449 22,200 960 Climbing Toronto Center
15:37 45.4000 -75.5000 261° West 390 449 23,200 960 Climbing Toronto Center
15:38 45.4167 -75.6667 278° West 400 460 24,200 960 Climbing Toronto Center
15:39 45.4000 -75.8333 262° West 400 460 25,200 780 Climbing Toronto Center
15:41 45.4000 -76.0185 270° West  Level FlightAware Approximate
15:41 45.4000 -76.1333 270° West 400 460 26,700  Level Toronto Center
15:42 45.3667 -76.2833 252° West 400 460 27,400 600 Climbing Toronto Center
15:43 45.3333 -76.4500 254° West 400 460 28,000 180 Climbing Toronto Center
15:45 45.2934 -76.6242 252° West  Level FlightAware Approximate
15:45 45.2667 -76.7500 252° West 420 483 28,000  Level Toronto Center
15:46 45.2333 -76.9167 254° West 420 483 28,000  Level Toronto Center
15:47 45.1833 -77.0833 247° West 420 483 28,000  Level Toronto Center
15:48 45.1500 -77.2167 251° West 410 472 28,000  Level Toronto Center
15:49 45.1167 -77.3833 254° West 410 472 28,000  Level Toronto Center
15:50 45.0833 -77.5333 253° West 410 472 28,000  Level Toronto Center
15:51 45.0500 -77.6667 251° West 410 472 28,000  Level Toronto Center
15:52 45.0000 -77.8333 247° West 410 472 28,000  Level Toronto Center
15:53 44.9667 -77.9833 253° West 400 460 28,000  Level Toronto Center
15:54 44.9167 -78.1500 247° West 400 460 28,000  Level Toronto Center
15:55 44.8833 -78.2833 251° West 410 472 28,000  Level Toronto Center
15:56 44.8500 -78.4333 253° West 400 460 28,000  Level Toronto Center
15:57 44.8167 -78.5667 251° West 400 460 28,000  Level Toronto Center
15:58 44.7833 -78.7167 253° West 400 460 28,000  Level Toronto Center
15:59 44.7333 -78.8833 247° West 400 460 28,000  Level Toronto Center
16:00 44.6833 -79.0167 242° Southwest 400 460 28,000  Level Toronto Center
16:01 44.6333 -79.1333 239° Southwest 400 460 28,000  Level Toronto Center
16:02 44.5833 -79.3000 247° West 400 460 28,000  Level Toronto Center
16:03 44.5333 -79.4167 239° Southwest 400 460 28,000  Level Toronto Center
16:04 44.4833 -79.5833 247° West 400 460 28,000  Level Toronto Center
16:05 44.4333 -79.7000 239° Southwest 400 460 28,000  Level Toronto Center
16:06 44.3833 -79.8500 245° Southwest 400 460 28,000  Level Toronto Center
16:07 44.3167 -79.9833 235° Southwest 400 460 28,000  Level Toronto Center
16:08 44.2667 -80.1167 242° Southwest 410 472 28,000  Level Toronto Center
16:09 44.2167 -80.2667 245° Southwest 410 472 28,000  Level Toronto Center
16:10 44.1667 -80.4000 242° Southwest 410 472 28,000  Level Toronto Center
16:11 44.1167 -80.5667 247° West 410 472 28,000  Level Toronto Center
16:12 44.0667 -80.6833 239° Southwest 410 472 28,000  Level Toronto Center
16:13 43.9833 -80.8333 232° Southwest 410 472 28,000  Level Toronto Center
16:14 43.9333 -80.9500 239° Southwest 410 472 28,000  Level Toronto Center
16:15 43.8833 -81.1167 247° West 410 472 28,000  Level Toronto Center
16:16 43.8333 -81.2500 243° Southwest 410 472 28,000  Level Toronto Center
16:17 43.7833 -81.3833 243° Southwest 420 483 28,000  Level Toronto Center
16:18 43.7333 -81.5333 245° Southwest 410 472 28,000  Level Toronto Center
16:19 43.6667 -81.6667 235° Southwest 420 483 28,000  Level Toronto Center
16:20 43.6167 -81.8000 243° Southwest 420 483 28,000  Level Toronto Center
16:21 43.5500 -81.9500 239° Southwest 420 483 28,000  Level Toronto Center
16:22 43.5000 -82.1000 245° Southwest 420 483 28,000  Level Toronto Center
16:23 43.4958 -82.1342 260° West 414 476 28,000  Level Cleveland Center
16:24 43.4378 -82.2728 240° Southwest 414 476 28,000  Level Cleveland Center
16:25 43.3836 -82.4114 242° Southwest 414 476 28,000  Level Cleveland Center
16:25 43.3333 -82.5000 232° Southwest 410 472 28,000  Level Toronto Center
16:26 43.2833 -82.6333 243° Southwest 410 472 28,000  Level Toronto Center
16:27 43.2706 -82.6817 250° West 414 476 28,000  Level Cleveland Center
16:28 43.2242 -82.8253 246° West 414 476 28,000  Level Cleveland Center
16:29 43.1500 -83.0667 247° West 410 472 28,000  Level Toronto Center
16:30 43.1453 -83.1156 262° West 411 473 28,000  Level Cleveland Center
16:31 43.1022 -83.2589 248° West 411 473 28,000  Level Cleveland Center
16:32 43.0614 -83.4050 249° West 411 473 28,000  Level Cleveland Center
16:33 43.0222 -83.5508 250° West 411 473 28,000  Level Cleveland Center
16:34 42.9789 -83.6964 248° West 411 473 28,000  Level Cleveland Center
16:35 42.9558 -83.8483 258° West 406 467 28,000  Level Cleveland Center
16:36 42.9389 -84.0064 262° West 415 478 28,000  Level Cleveland Center
16:37 42.9258 -84.1589 263° West 420 483 28,000  Level Cleveland Center
16:38 42.9083 -84.3167 261° West 420 483 28,000  Level Cleveland Center
16:38 42.9019 -84.4092 265° West 416 479 28,000  Level Chicago Center
16:39 42.8858 -84.5678 262° West 421 484 28,000  Level Chicago Center
16:40 42.8661 -84.7553 262° West 420 483 28,000  Level Chicago Center
16:41 42.8492 -84.9136 262° West 422 486 28,000  Level Chicago Center
16:42 42.8325 -85.0706 262° West 419 482 28,000  Level Chicago Center
16:43 42.8161 -85.2281 262° West 420 483 28,000  Level Chicago Center
16:44 42.7986 -85.3858 261° West 420 483 28,000 -1,020 Level Chicago Center
16:46 42.7732 -85.5308 254° West  Level FlightAware Approximate
16:48 42.7167 -85.8822 257° West 415 478 24,000  Level Chicago Center
16:49 42.6894 -86.0347 256° West 412 474 22,200 -1,740 Descending Chicago Center
16:50 42.6614 -86.1869 256° West 413 475 20,500 -1,080 Descending Chicago Center
16:51 42.6336 -86.3339 256° West 406 467 20,000 -300 Descending Chicago Center
16:52 42.6058 -86.4803 256° West 401 461 20,000 -120 Level Chicago Center
16:53 42.5894 -86.4911 257° West  Level FlightAware Approximate
16:53 42.5789 -86.6250 256° West 397 457 19,800  Level Chicago Center
16:54 42.5503 -86.7756 256° West 404 465 17,700 -2,160 Descending Chicago Center
16:55 42.5025 -86.9425 249° West 402 463 15,400 -2,100 Descending Chicago Center
16:56 42.4625 -87.0769 248° West 391 450 13,400 -1,920 Descending Chicago Center
16:57 42.4286 -87.2078 251° West 373 429 11,400 -1,620 Descending Chicago Center
16:58 42.3953 -87.3303 250° West 351 404 10,100 -720 Descending Chicago Center
16:59 42.3608 -87.4511 249° West 351 404 10,000 -420 Descending Chicago Center
17:00 42.3072 -87.5653 238° Southwest 293 337 9,300 -1,080 Descending Chicago Center
17:01 42.2464 -87.6317 219° Southwest 282 325 7,800 -1,140 Descending Chicago Center
17:02 42.1864 -87.6947 218° Southwest 276 318 7,000 -420 Descending Chicago Center
17:03 42.1267 -87.7592 219° Southwest 277 319 7,000  Level Chicago Center
17:04 42.0833 -87.8500 237° Southwest 276 318 7,000  Level Chicago TRACON
17:05 42.0500 -87.9333 242° Southwest 223 257 7,000  Level Chicago TRACON
17:06 42.0500 -88.0167 270° West 208 239 7,000 -600 Level Chicago TRACON
17:07 42.0500 -88.0833 270° West 210 242 5,900 -1,200 Descending Chicago TRACON
17:08 42.0667 -88.1667 285° West 212 244 4,800 -1,080 Descending Chicago TRACON
17:08 42.0603 -88.1753 225° Southwest 212 244 4,600 -600 Descending Chicago Center
17:09 42.0203 -88.2106 213° Southwest 201 231 4,000 -300 Descending Chicago Center
17:10 41.9992 -88.1533 116° Southeast 182 209 4,000 -300 Level Chicago Center
17:11 41.9833 -88.1167 120° Southeast 172 198 3,500 -840 Descending Chicago TRACON
17:13 41.9821 -87.9550 91° East  Level Estimated
17:13 41.9833 -87.9833 91° East 151 174 1,800  Level Chicago TRACON
17:16 41.9950 -87.9142 160° South  Level FlightAware Approximate